La Plagne, France 16 day weather forecast

Slopes altitude range 1250 m - 3250m

Number of lifts: 135 Pistes: 425km

In some cases the lift and piste totals shown are for the ski domain (e.g. Three Valleys) rather than individual resort (e.g. Courchevel)

Overview

The 16 day weather forecast is fully updated 4 times every day.

    • Thu 21 FEB 2019
    • Thu 21
    • 1C 7C
    • Fri 22 FEB 2019
    • Fri 22
    • -1C 7C
    • Sat 23 FEB 2019
    • Sat 23
    • 1C 9C
    • Sun 24 FEB 2019
    • Sun 24
    • 0C 8C
    • Mon 25 FEB 2019
    • Mon 25
    • 2C 10C
    • Tue 26 FEB 2019
    • Tue 26
    • 2C 11C
    • Wed 27 FEB 2019
    • Wed 27
    • 3C 13C
    • Thu 28 FEB 2019
    • Thu 28
    • 3C 11C
    • Fri 01 MAR 2019
    • Fri 01
    • -2C 4C
    • Sat 02 MAR 2019
    • Sat 02
    • -3C 3C
    • Sun 03 MAR 2019
    • Sun 03
    • -3C -2C
    • Mon 04 MAR 2019
    • Mon 04
    • -5C 4C
    • Tue 05 MAR 2019
    • Tue 05
    • -3C 0C
    • Wed 06 MAR 2019
    • Wed 06
    • -5C -1C
    • Thu 07 MAR 2019
    • Thu 07
    • -9C -5C
    • Fri 08 MAR 2019
    • Fri 08
    • -17C -7C

Date:

Time Type 0°C level Temp Chill Snow Cloud Speed Gust Dir Press
18:00 1938m 7°C 7_3 0cm 11% 3mph 4mph 1029mB
21:00 1848m 0°C 0_4 0cm 0% 4mph 5mph 1030mB
0:00 1742m -1°C -1_4 0cm 0% 4mph 5mph 1030mB
3:00 1353m -1°C -1_4 0cm 0% 4mph 5mph 1030mB
6:00 1922m -1°C -1_5 0cm 1% 5mph 5mph 1030mB
9:00 3160m -1°C -1_1 0cm 0% 1mph 2mph 1029mB
12:00 3079m 7°C 7_3 0cm 8% 3mph 4mph 1027mB
15:00 2859m 7°C 7_3 0cm 42% 3mph 4mph 1026mB
18:00 2956m 7°C 7_4 0cm 24% 4mph 4mph 1028mB
21:00 3279m 2°C 2_5 0cm 0% 5mph 6mph 1029mB
0:00 3433m 2°C 2_5 0cm 0% 5mph 6mph 1030mB
3:00 3290m 2°C 2_4 0cm 0% 4mph 5mph 1030mB
6:00 2690m 1°C 1_3 0cm 0% 3mph 3mph 1031mB
9:00 3519m 1°C 1_1 0cm 0% 1mph 2mph 1030mB
12:00 3323m 9°C 9_4 0cm 0% 4mph 4mph 1029mB
15:00 2779m 9°C 9_4 0cm 0% 4mph 4mph 1028mB
18:00 3433m 9°C 9_2 0cm 0% 2mph 2mph 1030mB
21:00 3532m 2°C 2_3 0cm 1% 3mph 4mph 1032mB
0:00 3325m 1°C 1_3 0cm 1% 3mph 4mph 1033mB
3:00 3129m 0°C 0_2 0cm 0% 2mph 2mph 1033mB
6:00 2327m 0°C 0_1 0cm 0% 1mph 1mph 1033mB
9:00 3473m 0°C 0_2 0cm 0% 2mph 2mph 1033mB
12:00 3471m 8°C 8_3 0cm 0% 3mph 3mph 1032mB
15:00 3399m 8°C 8_4 0cm 0% 4mph 4mph 1031mB
18:00 3299m 8°C 8_1 0cm 0% 1mph 1mph 1032mB
21:00 3458m 2°C 2_2 0cm 0% 2mph 3mph 1033mB
0:00 3291m 2°C 2_2 0cm 0% 2mph 3mph 1033mB
3:00 3155m 1°C 1_2 0cm 0% 2mph 2mph 1033mB
6:00 3096m 1°C 1_2 0cm 3% 2mph 2mph 1033mB
9:00 3089m 2°C 2_3 0cm 0% 3mph 5mph 1034mB
12:00 2840m 10°C 10_5 0cm 0% 5mph 8mph 1033mB
15:00 2612m 10°C 10_4 0cm 0% 4mph 6mph 1032mB
18:00 2567m 10°C 10_5 0cm 0% 5mph 5mph 1035mB
21:00 2579m 1°C 1_5 0cm 0% 5mph 6mph 1035mB
0:00 2580m 1°C 1_4 0cm 0% 4mph 5mph 1035mB
3:00 2709m 1°C 1_4 0cm 0% 4mph 5mph 1034mB
6:00 2873m 1°C 1_3 0cm 0% 3mph 4mph 1033mB
9:00 3085m 2°C 2_1 0cm 0% 1mph 1mph 1031mB
12:00 3165m 11°C 11_3 0cm 6% 3mph 2mph 1029mB
15:00 3193m 11°C 11_3 0cm 9% 3mph 3mph 1028mB
18:00 3246m 11°C 11_2 0cm 6% 2mph 2mph 1029mB
21:00 3291m 4°C 4_4 0cm 7% 4mph 4mph 1029mB
0:00 3346m 3°C 3_4 0cm 3% 4mph 5mph 1028mB
3:00 3363m 3°C 3_4 0cm 0% 4mph 4mph 1027mB
6:00 3390m 3°C 3_4 0cm 0% 4mph 4mph 1026mB
9:00 3399m 3°C 3_1 0cm 0% 1mph 2mph 1025mB
12:00 3366m 13°C 13_3 0cm 2% 3mph 3mph 1024mB
15:00 3301m 13°C 13_3 0cm 7% 3mph 3mph 1022mB
18:00 3294m 13°C 13_3 0cm 9% 3mph 3mph 1024mB
21:00 3252m 5°C 5_4 0cm 14% 4mph 5mph 1025mB
0:00 3161m 4°C 4_3 0cm 11% 3mph 4mph 1025mB
3:00 3029m 3°C 3_3 0cm 3% 3mph 3mph 1025mB
6:00 2968m 3°C 3_3 0cm 5% 3mph 4mph 1025mB
9:00 2936m 3°C 3_0 0cm 3% 0mph 1mph 1024mB
12:00 2972m 11°C 11_3 0cm 5% 3mph 4mph 1023mB
15:00 2920m 11°C 11_4 0cm 14% 4mph 4mph 1022mB
18:00 2868m 11°C 11_2 0cm 8% 2mph 3mph 1023mB
21:00 2781m 3°C 3_2 0cm 0% 2mph 3mph 1024mB
0:00 2709m 2°C 2_3 0cm 0% 3mph 3mph 1024mB
3:00 1934m -2°C -2_2 0cm 0% 2mph 2mph 1024mB
6:00 1886m -2°C -2_2 0cm 0% 2mph 2mph 1024mB
9:00 2322m -2°C -2_2 0cm 50% 2mph 2mph 1024mB
12:00 2464m 4°C 4_4 0cm 73% 4mph 4mph 1023mB
15:00 2400m 4°C 4_5 0cm 94% 5mph 5mph 1021mB
18:00 1986m 4°C 4_2 0cm 94% 2mph 2mph 1023mB
21:00 1956m -2°C -2_2 0cm 92% 2mph 3mph 1024mB
0:00 1976m -2°C -2_4 0cm 92% 4mph 5mph 1023mB
3:00 1861m -2°C -2_4 0cm 93% 4mph 5mph 1023mB
6:00 1791m -3°C -3_5 0cm 93% 5mph 6mph 1023mB
9:00 2192m -3°C -3_5 0cm 96% 5mph 6mph 1022mB
12:00 2350m 3°C 3_6 0cm 95% 6mph 7mph 1020mB
15:00 2350m 3°C 3_6 0cm 31% 6mph 8mph 1018mB
18:00 2033m 3°C 3_7 1cm 37% 7mph 9mph 1020mB
21:00 1940m -2°C -2_8 4cm 99% 8mph 11mph 1020mB
0:00 1866m -2°C -2_8 6cm 100% 8mph 11mph 1020mB
3:00 1810m -3°C -3_6 8cm 100% 6mph 9mph 1019mB
6:00 1791m -3°C -3_7 7cm 100% 7mph 10mph 1021mB
9:00 1765m -3°C -3_6 5cm 100% 6mph 9mph 1023mB
12:00 1800m -2°C -2_6 4cm 99% 6mph 7mph 1023mB
Morning 0.0104167mm 0 1198m -5°C -5_5 0cm 71% 5mph 6mph 1023mB
Afternoon 0mm 0 2680m 4°C 4_9 0cm 97% 9mph 17mph 1014mB
Morning 0.447917mm 0.5625 1951m 0°C 0_10 4cm 100% 10mph 18mph 1015mB
Afternoon 0.0729167mm 0.125 1786m 0°C 0_11 1cm 88% 11mph 17mph 1012mB
Morning 0.130208mm 0.125 1741m -3°C -3_12 1cm 81% 12mph 24mph 1008mB
Afternoon 0.494792mm 2 1516m -1°C -1_9 16cm 90% 9mph 13mph 1012mB
Morning 0.0677083mm 0 1056m -6°C -6_7 1cm 80% 7mph 10mph 1016mB
Afternoon 0.0416667mm 0.0625 970m -5°C -5_11 1cm 78% 11mph 14mph 1021mB
Morning 0.0677083mm 0.125 0m -15°C -15_6 1cm 77% 6mph 9mph 1032mB
Afternoon 0mm 0 741m -7°C -7_10 0cm 19% 10mph 14mph 1032mB
Morning 0mm 0 88m -13°C -13_6 0cm 12% 6mph 7mph 1036mB
Afternoon 0mm 0 1971m 1°C 1_5 0cm 45% 5mph 7mph 1029mB

16 day outlook at a glance

Forecast issued: 21/02/2019 17:41:15

Chat

Your comments and questions. In a resort? Let us know what it's like!


Characters left 250

For terms and conditions see Readers Comments on the Cookie and privacy policy page.